Hourly Data Report for May 30, 2017

FISHER BRANCH (AUT)
MANITOBA

51°05'00.100" N
97°33'16.200" W
253.00 m
50309J6
71442
WSZ

Download Data

Hourly Data (May 2017)
Hourly Data Report for May 30, 2017
TIME
LST
Temp Definition
°C
Dew Point Definition
°C
Rel Hum Definition
%
Precip. Amount Definition
mm

Wind Dir Definition
10's deg

Wind Spd Definition
km/h
Visibility Definition
km
Stn Press Definition
kPa
Hmdx Definition


Wind Chill Definition


Weather Definition


00:00 6.0 4.3 89 0.0 32 19   98.25     LegendNANA
01:00 5.8 4.7 93 0.0 32 17   98.25     LegendNANA
02:00 6.1 4.8 91 0.0 31 15   98.26     LegendNANA
03:00 6.3 4.6 89 0.0 31 18   98.25     LegendNANA
04:00 6.9 5.0 88 0.0 32 18   98.27     LegendNANA
05:00 7.1 5.0 86 0.0 32 19   98.30     LegendNANA
06:00 7.8 5.3 84 0.0 31 18   98.32     LegendNANA
07:00 8.4 5.5 82 0.0 32 22   98.33     LegendNANA
08:00 10.3 5.6 73 0.0 33 24   98.32     LegendNANA
09:00 12.0 3.0 54 0.0 33 28   98.33     LegendNANA
10:00 13.0 -0.2 40 0.0 34 31   98.34     LegendNANA
11:00 13.1 0.4 42 0.0 33 29   98.32     LegendNANA
12:00 15.1 3.3 45 0.0 35 24   98.31     LegendNANA
13:00 15.1 2.9 44 0.0 34 34   98.29     LegendNANA
14:00 16.8 1.3 35 0.0 34 31   98.27     LegendNANA
15:00 17.5 1.2 33 0.0 34 29   98.26     LegendNANA
16:00 18.5 1.0 31 0.0 34 32   98.21     LegendNANA
17:00 18.3 1.7 33 0.0 34 31   98.21     LegendNANA
18:00 18.0 1.5 33 0.0 34 21   98.20     LegendNANA
19:00 18.3 1.4 32 0.0 33 27   98.19     LegendNANA
20:00 16.1 2.6 40 0.0 33 13   98.24     LegendNANA
21:00 13.0 3.0 51 0.0 31 9   98.26     LegendNANA
22:00 11.4 2.7 55 0.0 30 11   98.30     LegendNANA
23:00 10.5 2.2 56 0.0 31 9   98.34     LegendNANA

Notes on Data Quality.

Legend

  • E = Estimated
  • M = Missing
  • NA = Not Available*
  • [empty] = Indicates an unobserved value
Date modified: